Location: Newark
(40.3500°N, 15.2333°E)
Time: 17:58:28
(UTC+00:00)

Vanguard 1 Rocket - Visible Passes

Search period start: 28 January 2020 00:00
Search period end: 07 February 2020 00:00
Orbit: 650 x 4226 km, 34.3° (Epoch: 27 January)

Date Brightness Start Highest point End Pass type
(mag) Time Alt. Az. Time Alt. Az. Time Alt. Az.
31 Jan 9.9 05:19:58 10° SSE 05:22:22 13° SE 05:25:11 10° ESE visible
02 Feb 9.5 05:21:39 10° S 05:24:55 18° SE 05:29:03 10° ESE visible
04 Feb 9.2 05:23:53 10° SSW 05:27:35 23° SSE 05:32:25 10° E visible
05 Feb 9.5 04:16:02 10° SSE 04:17:12 11° SE 04:18:25 10° SE visible
06 Feb 8.9 05:26:26 10° SW 05:30:21 28° SSE 05:35:34 10° E visible
